Date,TemperatureHighF,TemperatureAvgF,TemperatureLowF,DewpointHighF,DewpointAvgF,DewpointLowF,HumidityHigh,HumidityAvg,HumidityLow,PressureMaxIn,PressureMinIn,WindSpeedMaxMPH,WindSpeedAvgMPH,GustSpeedMaxMPH,PrecipitationSumIn
2013-1-1,52,43,36,41,37,33,100,81,56,30.20,30.13,4,0,17,0.00
2013-1-2,58,42,31,40,33,25,100,77,31,30.17,30.05,0,0,7,0.00
2013-1-3,58,42,32,40,35,31,99,80,44,30.18,30.09,1,0,6,0.02
2013-1-4,60,46,36,40,37,32,98,76,36,30.21,30.09,1,0,7,0.00
2013-1-5,57,47,37,50,43,36,99,88,65,30.18,30.00,3,0,17,0.07
2013-1-6,50,48,47,50,48,47,100,100,98,30.11,29.98,5,0,12,0.20
2013-1-7,61,47,38,52,44,38,100,91,64,30.18,30.08,0,0,7,0.04
2013-1-8,64,51,44,54,45,42,100,84,50,30.16,30.05,0,0,6,0.02
2013-1-9,58,48,42,51,44,38,100,90,71,30.07,29.93,3,0,16,0.02
2013-1-10,50,45,40,39,36,32,87,71,53,30.12,30.01,2,0,14,0.02
2013-1-11,53,43,33,39,35,31,96,74,50,30.19,30.06,2,0,13,0.00
2013-1-12,51,41,32,39,29,16,100,68,25,30.19,30.07,0,0,6,0.00
2013-1-13,34,31,29,28,26,25,88,84,80,30.16,30.10,0,0,0,0.00
2013-1-17,63,45,32,40,33,30,96,69,33,30.19,30.07,0,0,8,0.00
2013-1-18,66,48,36,40,36,33,92,66,29,30.16,30.05,1,0,7,0.00
2013-1-19,64,47,34,42,36,32,92,67,36,30.18,30.08,1,0,7,0.00
2013-1-20,65,48,34,38,34,30,95,65,27,30.16,30.05,0,0,7,0.00
2013-1-21,66,46,33,40,34,29,93,68,26,30.11,30.00,0,0,6,0.00
2013-1-22,63,48,36,43,38,33,96,70,33,30.04,29.92,0,0,6,0.00
2013-1-23,56,51,46,52,47,40,97,87,66,30.00,29.89,0,0,7,0.07
2013-2-27,69,52,36,46,37,28,91,62,21,30.29,30.12,1,0,10,0.00
2013-2-28,67,54,43,53,48,42,100,79,52,30.37,30.30,2,0,12,0.00
2013-3-1,74,58,47,58,50,47,100,79,41,30.35,30.15,0,0,7,0.02
2013-3-2,71,58,50,53,50,47,93,75,51,30.17,29.99,0,0,7,0.00
2013-3-3,67,56,48,53,49,42,96,78,42,30.03,29.95,2,0,11,0.00
2013-3-4,58,51,45,46,44,41,91,77,62,30.08,29.99,2,0,14,0.00
2013-3-5,63,52,43,46,42,38,95,73,42,30.00,29.80,12,2,18,0.11
2013-3-6,58,52,43,48,42,36,88,71,46,30.00,29.79,7,2,32,0.23
2013-3-7,59,49,40,46,39,32,95,73,35,29.94,29.77,1,0,12,0.16
2013-3-13,79,61,46,56,50,46,100,74,34,30.09,29.97,1,0,10,0.00
2013-3-14,72,59,49,55,49,33,100,73,27,30.08,30.01,2,0,13,0.00
2013-3-15,72,56,45,52,47,42,97,75,38,30.06,29.98,2,0,10,0.00
2013-3-16,71,58,49,54,48,33,100,73,26,30.04,29.96,2,0,13,0.00
2013-3-17,68,55,42,48,41,33,93,63,28,30.08,29.97,1,0,11,0.00
2013-3-18,65,54,42,50,44,38,97,71,48,30.06,29.95,1,0,10,0.00
2013-3-19,69,55,45,50,44,33,95,72,36,30.06,29.98,4,0,14,0.09
2013-3-25,58,51,44,49,45,42,100,79,61,29.95,29.88,4,1,13,0.00
2013-3-26,65,54,45,48,45,42,93,73,52,29.94,29.85,4,1,13,0.00
2013-3-27,67,58,48,53,50,46,94,76,53,29.93,29.86,4,1,16,0.00
2013-3-28,71,61,56,57,54,51,99,78,51,30.01,29.92,2,0,12,0.00
2013-3-29,77,63,53,57,53,52,99,74,42,30.01,29.91,2,0,12,0.00
2013-3-30,69,60,55,56,54,52,96,83,59,29.99,29.89,1,0,10,0.04
2013-3-31,69,61,55,57,51,46,99,74,45,29.98,29.91,4,1,20,0.22
2013-4-1,69,60,54,58,53,48,100,79,52,30.07,29.97,3,1,14,0.14
2013-4-2,69,58,48,54,51,47,99,80,51,30.11,30.01,3,0,12,0.00
2013-4-3,78,60,52,55,52,49,94,76,37,30.07,29.89,4,0,13,0.00
2013-4-4,69,60,54,58,54,52,100,82,60,30.04,29.92,6,1,17,0.25
2013-4-5,68,60,53,54,51,48,86,73,53,30.11,30.04,6,1,19,0.00
2013-4-6,68,58,52,55,50,48,93,76,58,30.11,30.06,3,0,12,0.00
2013-4-7,69,58,52,54,50,45,94,77,53,30.10,29.84,7,2,20,0.00
2013-6-28,93,77,61,64,61,58,93,62,33,29.95,29.80,2,0,12,0.00
2013-6-29,95,78,62,64,59,51,90,58,22,29.84,29.71,2,0,12,0.00
2013-6-30,88,73,62,64,60,57,89,65,35,29.76,29.68,2,0,12,0.00
2013-7-1,89,74,61,64,60,57,95,65,36,29.75,29.72,1,0,11,0.00
2013-7-2,90,73,64,65,62,59,90,70,42,29.83,29.74,2,0,11,0.00
2013-7-3,89,73,63,64,62,59,95,70,40,29.83,29.67,2,0,11,0.00
2013-7-4,84,77,66,66,64,61,86,66,53,29.70,29.65,7,0,7,0.00
2013-9-15,78,66,55,62,57,54,96,74,49,29.78,29.72,3,0,14,0.00
2013-9-16,83,68,59,62,58,53,96,73,38,29.81,29.70,3,0,14,0.00
2013-9-17,75,65,57,60,54,49,95,68,40,29.80,29.76,5,1,20,0.00
2013-9-18,84,64,53,56,51,40,95,69,21,29.82,29.72,3,0,13,0.00
2013-9-19,87,68,52,58,52,41,93,62,20,29.76,29.64,2,0,11,0.00
2013-9-20,77,65,53,61,56,49,89,73,53,29.78,29.69,7,1,18,0.00
2013-9-21,70,65,60,64,59,55,100,82,60,29.77,29.73,10,0,11,0.09
2013-10-14,78,61,46,46,40,35,84,52,22,30.03,29.90,0,0,1,0.00
2013-10-15,80,63,47,44,37,32,74,44,18,29.96,29.85,0,0,7,0.00
2013-10-16,82,63,47,42,38,34,70,44,18,30.00,29.91,1,0,10,0.00
2013-10-17,81,63,48,45,38,30,70,45,16,30.00,29.87,1,0,10,0.00
2013-10-18,78,60,47,54,46,36,87,62,27,29.97,29.88,0,0,7,0.00
2013-10-19,81,62,48,58,49,44,97,67,28,30.00,29.89,0,0,7,0.00
2013-10-20,73,62,49,56,51,45,100,69,52,29.94,29.82,1,0,7,0.00
2013-11-17,62,51,43,53,46,42,100,85,59,30.01,29.85,1,0,10,0.02
2013-11-18,62,51,42,50,46,42,100,85,55,30.07,30.01,1,0,12,0.00
2013-11-19,64,56,47,58,52,45,100,87,61,30.02,29.87,0,0,10,0.61
2013-11-20,65,58,53,64,58,53,100,99,86,29.86,29.77,0,0,10,0.56
2013-11-21,62,55,50,54,41,25,100,65,25,29.91,29.82,2,0,17,0.00
2013-11-22,70,53,39,35,26,14,71,41,13,29.96,29.82,0,0,6,0.00
2013-11-23,53,47,41,41,38,34,85,73,55,29.98,29.88,0,0,0,0.00
2013-11-28,68,54,46,51,45,40,97,76,36,30.00,29.78,1,0,7,0.00
2013-11-29,70,54,43,50,43,41,100,71,38,30.13,30.00,0,0,6,0.00
2013-11-30,69,52,41,52,44,39,100,78,38,30.18,30.10,0,0,7,0.00
2013-12-1,70,53,42,50,45,42,100,77,39,30.26,30.13,0,0,7,0.00
2013-12-2,64,51,42,54,48,42,100,90,65,30.14,29.91,1,0,10,0.00
2013-12-3,56,50,39,54,40,33,100,70,43,29.90,29.78,2,0,14,0.00
2013-12-4,51,39,33,32,26,16,80,62,26,30.00,29.86,1,0,8,1.05
2013-12-5,51,35,27,27,22,12,81,63,21,30.09,30.00,1,0,7,0.00
2013-12-6,54,43,31,49,35,26,98,74,42,30.12,29.85,3,0,21,0.25
2013-12-7,51,47,34,49,28,23,100,52,34,30.13,29.84,7,1,26,0.13
2013-12-8,45,37,30,30,24,18,94,61,38,30.25,30.15,6,0,13,0.00
2013-12-9,50,38,28,25,19,13,79,50,25,30.33,30.24,1,0,10,0.00
2013-12-10,54,39,28,31,27,24,86,63,32,30.32,30.12,1,0,8,0.00
2013-12-11,57,42,31,33,29,26,88,65,30,30.16,30.09,0,0,6,0.00
2013-12-12,60,43,30,36,30,27,94,66,28,30.19,30.08,0,0,5,0.00
2013-12-13,62,50,35,44,36,32,93,62,34,30.26,30.16,0,0,7,0.00
2013-12-14,62,45,34,44,35,32,99,72,36,30.31,30.22,1,0,7,0.00
2013-12-15,63,46,34,40,36,32,95,70,38,30.28,30.16,0,0,7,0.00
2013-12-24,70,52,39,44,39,35,96,66,31,30.26,30.12,0,0,6,0.00
2013-12-25,67,49,38,42,38,35,92,68,37,30.21,30.11,0,0,10,0.00
2013-12-26,71,49,37,44,38,34,97,70,28,30.18,30.08,0,0,6,0.00
2013-12-27,60,47,36,45,39,34,92,76,46,30.16,30.03,0,0,6,0.00
2013-12-28,68,48,36,44,34,27,100,65,23,30.07,29.95,0,0,7,0.00
2013-12-29,68,52,41,32,26,17,65,42,15,30.09,30.01,0,0,7,0.00
2013-12-30,65,54,35,37,34,28,83,50,29,30.17,30.09,1,0,5,0.00
2013-12-31,60,45,35,47,38,33,100,78,44,30.19,30.06,1,0,8,0.00
2014-1-1,63,47,35,44,38,32,96,73,46,30.13,30.04,0,0,5,0.00
2014-1-2,67,50,38,40,35,32,90,62,28,30.09,29.97,0,0,10,0.00